[[{"header":{"parameterUnit":"m.s-1","parameterCategory":1,"la1":30.2992,"la2":30.254,"lo1":-89.0895,"lo2":-89.0443,"dy":0.0025,"dx":0.0025,"nx":19,"ny":19,"refTime":"2026-04-03T03:00:00:Z","depth":0,"parameterNumber":2,"parameterNumberName":"U-component_of_WINDS"},"data":[0,0,0,-5.1803,-5.1807,-5.1964,-5.1964,-5.2183,-5.2186,0,0,0,0,0,0,0,0,0,0,0,-5.1767,-5.1769,-5.1803,-5.1807,-5.1964,-5.1964,-5.2183,-5.2186,0,0,0,0,0,0,0,0,0,0,0,-5.1766,-5.1768,-5.1771,-5.1808,-5.1964,-5.1965,-5.2183,-5.2058,0,0,0,0,0,0,0,0,0,0,-5.1902,-5.1879,-5.1768,-5.1771,-5.1809,-5.1964,-5.1965,-5.2051,-5.2065,-5.212,0,-5.2171,0,-5.2182,-5.2201,-5.2202,0,0,0,-5.1799,-5.1867,-5.19,-5.1771,-5.181,-5.1963,-5.1891,-5.2059,-5.2075,-5.2139,-5.2174,-5.2181,-5.2186,-5.2203,-5.2204,-5.2545,-5.2546,0,0,-5.179,-5.1801,-5.1889,-5.1911,-5.1888,-5.1886,-5.1896,-5.2068,-5.2107,-5.2175,-5.2186,-5.2189,-5.2204,-5.2206,-5.2543,-5.2545,0,0,0,-5.1771,-5.1795,-5.1823,-5.1903,-5.1929,-5.1891,-5.1902,-5.21,-5.2108,-5.2189,-5.2192,-5.2206,-5.2209,-5.2541,-5.2544,-5.265,0,0,0,-5.1765,-5.1784,-5.182,-5.1828,-5.1927,-5.2017,-5.193,-5.2096,-5.2115,-5.2191,-5.2206,-5.2211,-5.2538,-5.2542,-5.2643,-5.2699,0,0,0,-5.1753,-5.1782,-5.1809,-5.1828,-5.1896,-5.2013,-5.2031,-5.21,-5.2118,-5.2202,-5.2212,-5.2537,-5.2541,-5.2636,-5.2687,-5.2791,0,0,0,-5.1743,-5.1901,-5.181,-5.1988,-5.1895,-5.2079,-5.203,-5.2166,-5.2252,-5.2207,-5.2539,-5.2543,-5.2634,-5.2681,-5.2784,-5.2879,-5.292,0,0,-5.1948,-5.1926,-5.203,-5.1953,-5.2156,-5.2054,-5.2272,-5.234,-5.2339,-5.2476,-5.2484,-5.2645,-5.2687,-5.279,-5.3149,-5.3181,0,0,0,-5.2098,-5.2173,-5.2224,-5.2306,-5.2363,-5.2416,-5.2449,-5.2475,-5.2591,-5.2412,-5.2711,-5.2735,-5.2795,-5.284,-5.2868,-5.2918,-5.2565,-5.2564,-5.2564,-5.2402,-5.2392,-5.2563,-5.2573,-5.2654,-5.2688,-5.2752,-5.2793,-5.2759,-5.283,-5.287,-5.3089,-5.3142,-5.3163,-5.3216,-5.2921,-5.2921,-5.2922,-5.2922,-5.27,-5.2804,-5.2757,-5.2906,-5.2895,-5.3021,-5.3061,-5.3033,-5.3148,-5.3058,-5.311,-5.3011,-5.3199,-5.3245,-5.293,-5.2928,-5.2927,-5.2927,-5.2926,-5.2897,-5.2945,-5.2974,-5.3093,-5.3186,-5.3191,-5.3304,-5.329,-5.3278,-5.333,-5.3371,-5.3369,-5.3364,-5.3351,-5.3351,-5.3352,-5.3353,-5.3353,-5.3354,-5.3089,-5.3118,-5.3215,-5.329,-5.3341,-5.3408,-5.3445,-5.3496,-5.3548,-5.3529,-5.3529,-5.3489,-5.322,-5.3152,-5.3366,-5.3363,-5.3362,-5.3361,-5.336,-5.3392,-5.3322,-5.3471,-5.3523,-5.361,-5.3704,-5.3686,-5.379,-5.383,-5.3887,-5.3836,-5.364,-5.3616,-5.3594,-5.3537,-5.3838,-5.3838,-5.3838,-5.3838,-5.3557,-5.3545,-5.3695,-5.3779,-5.3859,-5.3859,-5.4029,-5.4061,-5.4082,-5.4107,-5.4062,-5.3987,-5.3965,-5.3954,-5.3924,-5.3871,-5.4249,-5.425,-5.425,-5.3743,-5.3738,-5.3884,-5.3905,-5.3973,-5.4031,-5.4191,-5.4289,-5.43,-5.4266,-5.4125,-5.4108,-5.3986,-5.3947,-5.3908,-5.3862,-5.3765,0,0]},{"header":{"parameterUnit":"m.s-1","parameterCategory":1,"la1":30.2992,"la2":30.254,"lo1":-89.0895,"lo2":-89.0443,"dy":0.0025,"dx":0.0025,"nx":19,"ny":19,"refTime":"2026-04-03T03:00:00:Z","depth":0,"parameterNumber":3,"parameterNumberName":"V-component_of_WINDS"},"data":[0,0,0,0.8185,0.8184,0.8157,0.8157,0.8123,0.8123,0,0,0,0,0,0,0,0,0,0,0,0.8195,0.8195,0.8185,0.8184,0.8157,0.8157,0.8124,0.8123,0,0,0,0,0,0,0,0,0,0,0,0.8195,0.8195,0.8194,0.8184,0.8157,0.8157,0.8124,0.8143,0,0,0,0,0,0,0,0,0,0,0.817,0.818,0.8195,0.8194,0.8184,0.8157,0.8157,0.8144,0.8142,0.8137,0,0.8133,0,0.8128,0.8121,0.8121,0,0,0,0.8183,0.8182,0.8174,0.8194,0.8184,0.8157,0.8169,0.8143,0.8141,0.8134,0.8133,0.8132,0.8127,0.8121,0.8121,0.81,0.81,0,0,0.8184,0.819,0.8175,0.8172,0.8178,0.817,0.8168,0.8142,0.814,0.8133,0.8131,0.8127,0.8121,0.8121,0.81,0.81,0,0,0,0.819,0.8191,0.8183,0.8174,0.8169,0.8169,0.8167,0.8141,0.8138,0.813,0.8127,0.8121,0.812,0.81,0.81,0.8106,0,0,0,0.8191,0.8195,0.8184,0.8187,0.8169,0.8155,0.8167,0.814,0.8137,0.8127,0.8121,0.812,0.81,0.81,0.8106,0.8107,0,0,0,0.8196,0.8195,0.8192,0.8188,0.8177,0.8155,0.815,0.8139,0.8135,0.8121,0.812,0.81,0.81,0.8106,0.8107,0.8105,0,0,0,0.8203,0.8196,0.8192,0.8183,0.8177,0.816,0.8151,0.8137,0.8126,0.812,0.81,0.81,0.8106,0.8107,0.8105,0.8104,0.8104,0,0,0.8197,0.8195,0.8189,0.8186,0.8171,0.8163,0.8149,0.8132,0.8124,0.8108,0.8108,0.8106,0.8107,0.8105,0.8104,0.8104,0,0,0,0.819,0.8186,0.8181,0.8172,0.816,0.8151,0.8136,0.813,0.8117,0.8118,0.8104,0.8105,0.8103,0.8102,0.8103,0.8101,0.81,0.81,0.81,0.8189,0.8182,0.8173,0.8163,0.8154,0.8141,0.8133,0.8123,0.8116,0.8114,0.8108,0.8109,0.8109,0.8109,0.8108,0.8108,0.8108,0.8108,0.8108,0.818,0.8174,0.8169,0.8157,0.815,0.814,0.8128,0.8124,0.8114,0.8111,0.811,0.8107,0.8109,0.8108,0.8108,0.8108,0.8108,0.8108,0.8108,0.8179,0.8175,0.817,0.8158,0.815,0.814,0.8132,0.8125,0.8118,0.8117,0.8112,0.8111,0.8111,0.8115,0.8115,0.8115,0.8115,0.8115,0.8115,0.8179,0.8174,0.8168,0.8158,0.8153,0.8145,0.8134,0.8129,0.8121,0.8116,0.8116,0.8111,0.8111,0.8112,0.8115,0.8115,0.8115,0.8115,0.8115,0.8173,0.8174,0.8165,0.8161,0.815,0.8143,0.8136,0.8126,0.812,0.8117,0.8113,0.8114,0.8111,0.8111,0.8111,0.8114,0.8114,0.8114,0.8114,0.8172,0.8171,0.8162,0.8155,0.8148,0.8141,0.8132,0.8125,0.8116,0.8113,0.8112,0.8112,0.8112,0.8109,0.8108,0.8109,0.8111,0.8111,0.8111,0.8168,0.8166,0.816,0.8154,0.8146,0.8139,0.8131,0.8124,0.8114,0.811,0.811,0.811,0.811,0.8111,0.8105,0.8105,0.8105,0,0]}]]